Weather History for Ostrava, Czech Republic

Change the Weather History Date:

Friday, December 7, 2012

  Actual Average (EPKT) Record (EPKT)
Temperature  
Mean Temperature 16 °F -  
Max Temperature 24 °F 35 °F 48 °F (2006)
Min Temperature 8 °F 25 °F 5 °F (2012)
Degree Days  
Heating Degree Days 49    
Moisture  
Dew Point 16 °F    
Average Humidity 83    
Maximum Humidity 93    
Minimum Humidity 61    
Precipitation  
Precipitation 0.00 in 0.04 in - ()
Sea Level Pressure  
Sea Level Pressure 29.91 in    
Wind  
Wind Speed 8 mph ()    
Max Wind Speed 13 mph    
Max Gust Speed -    
Visibility 5.4 miles    
Events Snow    
Averages and records for this station are not official NWS values.
T = Trace of Precipitation, MM = Missing Value Source: Averaged Metar Reports

Daily Weather History Graph

Daily Weather History Graph

Search for Another Location

Airport:

Trip Planner

Search our weather history database for the weather conditions in past years. The results will help you decide how hot, cold, wet, or windy it might be!

Date:

Astronomy

Dec. 07, 2012 Rise Set
Actual Time 7:30 AM CET 3:47 PM CET
Civil Twilight 6:52 AM CET 4:25 PM CET
Nautical Twilight 6:12 AM CET 5:05 PM CET
Astronomical Twilight 5:33 AM CET 5:44 PM CET
Moon No Moon Rise 12:06 PM CET (12/7)
Length of Visible Light 9h 32m
Length of Day
8h 16m
Last Quarter, 41% of the Moon is Illuminated
Dec 7
Last Quarter
Dec 13
New
Dec 20
First Quarter
Dec 28
Full
Jan 5
Last Quarter

Hourly Weather History & Observations

Time (CET) Temp. Windchill Dew Point Humidity Pressure Visibility Wind Dir Wind Speed Gust Speed Precip Events Conditions
12:00 AM 24.8 °F 14.6 °F 21.2 °F 86% 29.92 in 6.2 mi SW 10.4 mph - N/A   Mostly Cloudy
12:30 AM 24.8 °F 14.0 °F 21.2 °F 86% 29.92 in - SW 11.5 mph - N/A   Clear
1:00 AM 25 °F - 20 °F 76% 29.99 in 12 mi SW 11.2 mph - -   Partly Cloudy
1:00 AM 24.8 °F 14.6 °F 21.2 °F 86% 29.92 in 6.2 mi SW 10.4 mph - N/A   Overcast
1:30 AM 24.8 °F 14.6 °F 19.4 °F 80% 29.92 in 6.2 mi SW 10.4 mph - N/A   Overcast
2:00 AM 24.8 °F 15.3 °F 19.4 °F 80% 29.92 in 6.2 mi SW 9.2 mph - N/A   Overcast
2:30 AM 24.8 °F 14.6 °F 19.4 °F 80% 29.92 in 6.2 mi SW 10.4 mph - N/A Snow Light Snow
3:00 AM 24.8 °F 14.0 °F 19.4 °F 80% 29.92 in 6.2 mi SW 11.5 mph - N/A Snow Light Snow
3:30 AM 24.8 °F 13.4 °F 19.4 °F 80% 29.92 in - SW 12.7 mph - N/A   Clear
4:00 AM 24.8 °F 14.6 °F 19.4 °F 80% 29.92 in 6.2 mi SSW 10.4 mph - N/A   Mostly Cloudy
4:30 AM 24.8 °F 14.6 °F 19.4 °F 80% 29.92 in 6.2 mi SW 10.4 mph - N/A Snow Light Snow
5:00 AM 23.0 °F 11.7 °F 19.4 °F 86% 29.92 in 3.7 mi SW 11.5 mph - N/A Snow Light Snow
5:30 AM 23.0 °F 11.7 °F 19.4 °F 86% 29.92 in 2.8 mi SW 11.5 mph - N/A Snow Light Snow
6:00 AM 23.0 °F 12.4 °F 19.4 °F 86% 29.92 in 2.2 mi SSW 10.4 mph - N/A Snow Light Snow
6:30 AM 23.0 °F 12.4 °F 19.4 °F 86% 29.92 in 5.0 mi SSW 10.4 mph - N/A Snow Light Snow
7:00 AM 22 °F - 18 °F 78% 30.00 in 6 mi SW 11.2 mph - - Snow Light Snow
7:00 AM 21.2 °F 9.5 °F 17.6 °F 86% 29.92 in 6.2 mi SW 11.5 mph - N/A Snow Light Snow
7:30 AM 21.2 °F 10.1 °F 17.6 °F 86% 29.92 in 6.2 mi SSW 10.4 mph - N/A Snow Light Snow
8:00 AM 21.2 °F 11.7 °F 17.6 °F 86% 29.92 in - SSW 8.1 mph - N/A   Clear
8:30 AM 21.2 °F 11.7 °F 17.6 °F 86% 29.95 in - SSW 8.1 mph - N/A   Clear
9:00 AM 21.2 °F 11.7 °F 17.6 °F 86% 29.95 in 6.2 mi SSW 8.1 mph - N/A   Scattered Clouds
9:30 AM 21.2 °F 11.7 °F 17.6 °F 86% 29.95 in 6.2 mi SSW 8.1 mph - N/A   Scattered Clouds
10:00 AM 23.0 °F 14.7 °F 17.6 °F 80% 29.95 in 6.2 mi SW 6.9 mph - N/A   Partly Cloudy
10:30 AM 23.0 °F 13.9 °F 17.6 °F 80% 29.92 in 6.2 mi SW 8.1 mph - N/A   Scattered Clouds
11:00 AM 23.0 °F 12.4 °F 15.8 °F 74% 29.92 in 6.2 mi SW 10.4 mph - N/A   Partly Cloudy
11:30 AM 23.0 °F 12.4 °F 17.6 °F 80% 29.92 in 6.2 mi SW 10.4 mph - N/A   Partly Cloudy
12:00 PM 24.8 °F 16.1 °F 17.6 °F 74% 29.92 in 6.2 mi SW 8.1 mph - N/A   Partly Cloudy
12:30 PM 24.8 °F 16.1 °F 17.6 °F 74% 29.89 in 6.2 mi WSW 8.1 mph - N/A   Partly Cloudy
1:00 PM 24 °F - 16 °F 61% 29.97 in 12 mi SW 8.9 mph - -   Partly Cloudy
1:00 PM 24.8 °F 16.9 °F 17.6 °F 74% 29.89 in 6.2 mi SW 6.9 mph - N/A   Partly Cloudy
1:30 PM 24.8 °F 15.3 °F 17.6 °F 74% 29.89 in 6.2 mi SW 9.2 mph - N/A   Partly Cloudy
2:00 PM 24.8 °F 16.1 °F 17.6 °F 74% 29.89 in 6.2 mi WSW 8.1 mph - N/A   Partly Cloudy
2:30 PM 23.0 °F 13.9 °F 15.8 °F 74% 29.86 in 6.2 mi SW 8.1 mph - N/A   Partly Cloudy
3:00 PM 21.2 °F 11.7 °F 15.8 °F 80% 29.86 in 6.2 mi SW 8.1 mph - N/A   Partly Cloudy
3:30 PM 21.2 °F 12.6 °F 15.8 °F 80% 29.86 in - SW 6.9 mph - N/A   Clear
4:00 PM 19.4 °F 11.5 °F 15.8 °F 86% 29.86 in - SW 5.8 mph - N/A   Clear
4:30 PM 19.4 °F 11.5 °F 14.0 °F 80% 29.86 in - SW 5.8 mph - N/A   Clear
5:00 PM 19.4 °F 10.4 °F 15.8 °F 86% 29.86 in - SSW 6.9 mph - N/A   Clear
5:30 PM 19.4 °F 11.5 °F 15.8 °F 86% 29.86 in - SSW 5.8 mph - N/A   Clear
6:00 PM 19.4 °F 14.3 °F 14.0 °F 80% 29.89 in - South 3.5 mph - N/A   Clear
6:30 PM 17.6 °F - 14.0 °F 86% 29.89 in - Variable 1.2 mph - N/A   Clear
7:00 PM 14 °F - 12 °F 86% 29.97 in 5 mi 2.2 mph - -   Mist
7:00 PM 14.0 °F - 10.4 °F 86% 29.89 in 5.0 mi WNW 2.3 mph - N/A   Unknown
7:30 PM 14.0 °F - 10.4 °F 86% 29.89 in 4.3 mi Variable 2.3 mph - N/A   Unknown
8:00 PM 14.0 °F - 12.2 °F 93% 29.89 in 3.7 mi ESE 1.2 mph - N/A   Unknown
8:30 PM 12.2 °F - 10.4 °F 92% 29.89 in 3.7 mi Calm Calm - N/A   Unknown
9:00 PM 10.4 °F - 8.6 °F 92% 29.89 in 3.1 mi Variable 2.3 mph - N/A   Mist
9:30 PM 8.6 °F 2.0 °F 6.8 °F 92% 29.92 in 2.5 mi WSW 3.5 mph - N/A   Mist
10:00 PM 10.4 °F - 8.6 °F 92% 29.92 in 2.5 mi Variable 2.3 mph - N/A   Mist
10:30 PM 10.4 °F - 8.6 °F 92% 29.92 in 1.9 mi Calm Calm - N/A   Mist
11:00 PM 10.4 °F - 6.8 °F 85% 29.92 in 1.9 mi Calm Calm - N/A   Mist
11:30 PM 8.6 °F - 5.0 °F 85% 29.92 in 2.2 mi Variable 1.2 mph - N/A   Mist